Retour au catalogue

ATLAS 5 CENTAUR DEB

ActifHEO
NORAD 57591·DEBRIS·🇺🇸 United States

Lancé Oct 17, 2018 depuis Cape Canaveral Space Force Station

Loading…

Prochains Passages (prochaines 24 heures)

TLE

FraisSource: Space-Track

Époque: Sep 14, 2026, 09:56 UTC

1 57591U 18079HS  26257.41456639 -.00000162  00000-0  00000-0 0  9992
2 57591  12.7682  58.5164 4290609 274.3699  39.3203  1.80138446 27109

Suivez ATLAS 5 CENTAUR DEB en temps réel avec AllMySat

Download on the App Store